Flag for Bosnia-Herzegovina Weather past 2 weeks in Mostar, Bosnia-Herzegovina

Now
68 °F

Clear.


Feels Like: 68 °F
Forecast: 59 / 93 °F
Wind: 5 mph from Southeast

Location: Mostar

Current Time: Jul 1, 2015 at 2:17:24 AM

Latest Report: Jul 1, 2015 at 1:00 AM


Visibility: 10 mi

Pressure: 30.07 "Hg

Humidity: 49%

Dew point: 48 °F

Location of MostarLocation

Historic Weather in Mostar — Graph

°F

Mostar temperature yesterday

Maximum temperature yesterday: 88 °F (at 4:30 PM)
Minimum temperature yesterday: 68 °F (at 6:00 AM)
Average temperature yesterday: 80 °F

Past Weeks' High & Low Weather Summary

 TemperatureHumidityPressure
High90 °F (Jun 16, 3:30 PM)94% (Jun 16, 4:00 AM)30.12 "Hg (Jun 16, 4:00 AM)
Low52 °F (Jun 22, 5:30 AM)22% (Jun 22, 5:00 PM)29.74 "Hg (Jun 19, 2:00 PM)
Average73 °F49%29.92 "Hg
* Reported Jun 16 1:00 AM — Jul 1 1:00 AM, Mostar, Weather by CustomWeather, © 2015

Note: Actual official high and low records may vary slightly from our data, if they occured in-between our weather recording intervals... More about our weather records

Advertising

Mostar weather history for previous 24 hours

 ConditionsComfort  
Time TempWeatherWind HumidityBarometerVisibility
1:00 AM
Wed, Jul 1
68 °FClear.5 mph49%30.07 "Hg10 mi
12:00 AM75 °FClear.2 mph39%30.07 "Hg10 mi
11:00 PM
Tue, Jun 30
77 °FPassing clouds.6 mph36%30.07 "HgN/A
10:30 PM77 °FPassing clouds.17 mph36%30.07 "HgN/A
10:00 PM79 °FPassing clouds.20 mph34%30.04 "HgN/A
9:30 PM79 °FPassing clouds.20 mph34%30.04 "HgN/A
9:00 PM79 °FPassing clouds.18 mph34%30.04 "HgN/A
8:30 PM81 °FPassing clouds.17 mph30%30.01 "HgN/A
8:00 PM81 °FPassing clouds.15 mph32%30.01 "HgN/A
7:00 PM84 °FPassing clouds.14 mph25%30.01 "HgN/A
6:30 PM84 °FPassing clouds.12 mph25%29.98 "HgN/A
6:00 PM86 °FPassing clouds.13 mph24%29.98 "HgN/A
5:00 PM86 °FPassing clouds.13 mph24%29.98 "HgN/A
4:30 PM88 °FPassing clouds.13 mph22%29.98 "HgN/A
4:00 PM86 °FPassing clouds.10 mph25%30.01 "HgN/A
3:00 PM86 °FScattered clouds.15 mph25%30.01 "HgN/A
2:30 PM84 °FScattered clouds.15 mph27%30.01 "HgN/A
2:00 PM86 °FScattered clouds.14 mph24%30.01 "HgN/A
1:30 PM84 °FScattered clouds.12 mph27%30.04 "HgN/A
1:00 PM84 °FScattered clouds.17 mph27%30.04 "HgN/A
12:30 PM84 °FPassing clouds.17 mph29%30.04 "HgN/A
12:00 PM82 °FPassing clouds.16 mph30%30.04 "HgN/A
11:00 AM82 °FPassing clouds.13 mph30%30.04 "HgN/A
10:00 AM81 °FPassing clouds.16 mph32%30.04 "HgN/A
9:00 AM79 °FSunny.3 mph34%30.04 "Hg10 mi
8:00 AM75 °FPassing clouds.N/A39%30.04 "HgN/A
7:00 AM72 °FPassing clouds.N/A50%30.04 "HgN/A
6:00 AM68 °FPassing clouds.N/A56%30.04 "HgN/A
5:00 AM72 °FClear.N/A44%30.04 "Hg10 mi
4:00 AM70 °FClear.8 mph57%30.01 "Hg10 mi
3:00 AM72 °FPassing clouds.5 mph50%30.01 "HgN/A
2:00 AM73 °FPassing clouds.6 mph50%30.01 "HgN/A
Weather by CustomWeather, © 2015

See weather overviewHow to use our weather pages